Hourly Weather Golden Sands

Today, 13 May, Thursday

Time Temperature Precipitation Wind Pressure Humidity
00:00 +12°C° 0 mm 3 mps 756 mmHg 83%
01:00 +13°C° 0 mm 3 mps 756 mmHg 81%
02:00 +14°C° 0 mm 2 mps 755 mmHg 80%
03:00 +13°C° 0 mm 3 mps 755 mmHg 81%
04:00 +13°C° 0 mm 3 mps 755 mmHg 82%
05:00 +13°C° 0 mm 3 mps 755 mmHg 83%
06:00 +14°C° 0 mm 3 mps 755 mmHg 79%
07:00 +16°C° 0 mm 3 mps 755 mmHg 76%
08:00 +15°C° 0 mm 4 mps 755 mmHg 72%
09:00 +17°C° 0 mm 4 mps 755 mmHg 70%
10:00 +18°C° 0 mm 3 mps 755 mmHg 68%
11:00 +18°C° 0 mm 3 mps 755 mmHg 66%
12:00 +19°C° 0 mm 3 mps 755 mmHg 65%
13:00 +19°C° 0 mm 3 mps 755 mmHg 65%
14:00 +19°C° 0 mm 3 mps 755 mmHg 64%
15:00 +19°C° 0 mm 3 mps 755 mmHg 66%
16:00 +18°C° 0 mm 3 mps 754 mmHg 68%
17:00 +18°C° 0 mm 3 mps 754 mmHg 70%
18:00 +17°C° 0 mm 3 mps 754 mmHg 74%
19:00 +14°C° 0 mm 3 mps 754 mmHg 79%
20:00 +13°C° 0 mm 4 mps 754 mmHg 84%
21:00 +13°C° 0 mm 4 mps 754 mmHg 86%
22:00 +13°C° 0 mm 4 mps 754 mmHg 87%
23:00 +13°C° 0 mm 4 mps 754 mmHg 89%

Tomorrow, 14 May, Friday

Time Temperature Precipitation Wind Pressure Humidity
00:00 +13°C° 0 mm 3 mps 754 mmHg 89%
01:00 +13°C° 0 mm 3 mps 754 mmHg 88%
02:00 +13°C° 0 mm 2 mps 754 mmHg 88%
03:00 +12°C° 0 mm 3 mps 755 mmHg 87%
04:00 +12°C° 0 mm 3 mps 755 mmHg 86%
05:00 +12°C° 0 mm 3 mps 755 mmHg 86%
06:00 +14°C° 0 mm 3 mps 755 mmHg 79%
07:00 +17°C° 0 mm 3 mps 756 mmHg 73%
08:00 +19°C° 0 mm 3 mps 756 mmHg 66%
09:00 +20°C° 0 mm 3 mps 756 mmHg 62%
10:00 +21°C° 0 mm 3 mps 757 mmHg 57%
11:00 +22°C° 0 mm 3 mps 757 mmHg 53%
12:00 +22°C° 0.1 mm 3 mps 757 mmHg 56%
13:00 +21°C° 0.1 mm 4 mps 757 mmHg 59%
14:00 +21°C° 0.1 mm 5 mps 757 mmHg 62%
15:00 +20°C° 0.2 mm 5 mps 757 mmHg 66%
16:00 +19°C° 0.2 mm 5 mps 757 mmHg 71%
17:00 +19°C° 0.2 mm 4 mps 757 mmHg 75%
18:00 +18°C° 0.1 mm 4 mps 757 mmHg 78%
19:00 +17°C° 0.1 mm 4 mps 757 mmHg 82%
20:00 +15°C° 0.1 mm 4 mps 758 mmHg 85%
21:00 +16°C° 0 mm 3 mps 758 mmHg 86%
22:00 +16°C° 0 mm 3 mps 757 mmHg 86%
23:00 +16°C° 0 mm 3 mps 757 mmHg 87%

Day after tomorrow, 15 May, Saturday

Time Temperature Precipitation Wind Pressure Humidity
00:00 +14°C° 0 mm 3 mps 757 mmHg 88%
01:00 +15°C° 0 mm 2 mps 757 mmHg 89%
02:00 +15°C° 0 mm 2 mps 757 mmHg 90%
03:00 +15°C° 0 mm 2 mps 757 mmHg 88%
04:00 +14°C° 0 mm 1 mps 757 mmHg 87%
05:00 +14°C° 0 mm 1 mps 757 mmHg 86%
06:00 +16°C° 0 mm 1 mps 757 mmHg 81%
07:00 +19°C° 0 mm 1 mps 758 mmHg 76%
08:00 +18°C° 0 mm 0 mps 758 mmHg 72%
09:00 +21°C° 0 mm 1 mps 758 mmHg 70%
10:00 +22°C° 0 mm 1 mps 758 mmHg 68%
11:00 +21°C° 0 mm 2 mps 757 mmHg 66%
12:00 +21°C° 0 mm 2 mps 757 mmHg 66%
13:00 +21°C° 0 mm 2 mps 757 mmHg 65%
14:00 +21°C° 0 mm 2 mps 757 mmHg 65%
15:00 +21°C° 0 mm 2 mps 756 mmHg 68%
16:00 +20°C° 0 mm 3 mps 756 mmHg 71%
17:00 +19°C° 0 mm 3 mps 756 mmHg 73%
18:00 +18°C° 0 mm 3 mps 755 mmHg 78%
19:00 +17°C° 0 mm 3 mps 755 mmHg 82%
20:00 +15°C° 0 mm 4 mps 755 mmHg 86%
21:00 +16°C° 0 mm 3 mps 755 mmHg 87%
22:00 +16°C° 0 mm 3 mps 755 mmHg 89%
23:00 +16°C° 0 mm 2 mps 755 mmHg 90%

16 May, Sunday

Time Temperature Precipitation Wind Pressure Humidity
00:00 +16°C° 0 mm 2 mps 754 mmHg 87%
01:00 +16°C° 0 mm 1 mps 754 mmHg 85%
02:00 +16°C° 0 mm 1 mps 754 mmHg 83%
03:00 +16°C° 0.1 mm 1 mps 754 mmHg 85%
04:00 +16°C° 0.1 mm 1 mps 754 mmHg 86%
05:00 +16°C° 0.1 mm 1 mps 754 mmHg 88%
06:00 +16°C° 0.6 mm 2 mps 754 mmHg 87%
07:00 +17°C° 0.6 mm 3 mps 754 mmHg 86%
08:00 +17°C° 0.6 mm 4 mps 754 mmHg 85%
09:00 +18°C° 0.1 mm 3 mps 754 mmHg 79%
10:00 +19°C° 0.1 mm 3 mps 754 mmHg 73%
11:00 +20°C° 0.1 mm 2 mps 754 mmHg 68%
12:00 +21°C° 0 mm 2 mps 754 mmHg 66%
13:00 +21°C° 0 mm 2 mps 754 mmHg 65%
14:00 +22°C° 0 mm 1 mps 754 mmHg 64%
15:00 +22°C° 0 mm 1 mps 754 mmHg 66%
16:00 +21°C° 0 mm 1 mps 753 mmHg 67%
17:00 +21°C° 0 mm 1 mps 753 mmHg 69%
18:00 +19°C° 0 mm 1 mps 753 mmHg 74%
19:00 +18°C° 0 mm 1 mps 753 mmHg 79%
20:00 +16°C° 0 mm 1 mps 753 mmHg 85%
21:00 +15°C° 0.1 mm 2 mps 753 mmHg 86%
22:00 +14°C° 0.1 mm 3 mps 753 mmHg 88%
23:00 +14°C° 0.1 mm 4 mps 753 mmHg 89%

17 May, Monday

Time Temperature Precipitation Wind Pressure Humidity
00:00 +14°C° 0 mm 4 mps 753 mmHg 90%
01:00 +14°C° 0 mm 4 mps 753 mmHg 91%
02:00 +13°C° 0 mm 5 mps 753 mmHg 92%
03:00 +13°C° 0 mm 5 mps 753 mmHg 92%
04:00 +13°C° 0 mm 4 mps 753 mmHg 91%
05:00 +13°C° 0 mm 4 mps 753 mmHg 91%
06:00 +15°C° 0 mm 5 mps 754 mmHg 84%
07:00 +16°C° 0 mm 5 mps 754 mmHg 78%
08:00 +19°C° 0 mm 5 mps 754 mmHg 71%
09:00 +20°C° 0 mm 5 mps 755 mmHg 67%
10:00 +21°C° 0 mm 6 mps 755 mmHg 62%
11:00 +22°C° 0 mm 6 mps 755 mmHg 57%
12:00 +23°C° 0 mm 5 mps 755 mmHg 57%
13:00 +23°C° 0 mm 4 mps 755 mmHg 57%
14:00 +24°C° 0 mm 3 mps 755 mmHg 56%
15:00 +23°C° 0.1 mm 4 mps 755 mmHg 60%
16:00 +23°C° 0.1 mm 4 mps 755 mmHg 64%
17:00 +22°C° 0.1 mm 5 mps 756 mmHg 68%
18:00 +21°C° 0 mm 4 mps 756 mmHg 75%
19:00 +19°C° 0 mm 4 mps 756 mmHg 82%
20:00 +18°C° 0 mm 3 mps 756 mmHg 88%
21:00 +18°C° 0 mm 3 mps 756 mmHg 88%
22:00 +17°C° 0 mm 2 mps 756 mmHg 87%
23:00 +17°C° 0 mm 2 mps 756 mmHg 86%

18 May, Tuesday

Time Temperature Precipitation Wind Pressure Humidity
00:00 +17°C° 0 mm 2 mps 756 mmHg 86%
01:00 +17°C° 0 mm 3 mps 756 mmHg 86%
02:00 +17°C° 0 mm 3 mps 755 mmHg 86%
03:00 +17°C° 0 mm 3 mps 755 mmHg 88%
04:00 +17°C° 0 mm 4 mps 755 mmHg 89%
05:00 +17°C° 0 mm 4 mps 755 mmHg 90%
06:00 +17°C° 0 mm 5 mps 755 mmHg 85%
07:00 +19°C° 0 mm 6 mps 755 mmHg 79%
08:00 +20°C° 0 mm 7 mps 755 mmHg 74%
09:00 +21°C° 0 mm 7 mps 755 mmHg 71%
10:00 +22°C° 0 mm 7 mps 755 mmHg 68%
11:00 +23°C° 0 mm 7 mps 755 mmHg 65%
12:00 +23°C° 0 mm 7 mps 755 mmHg 65%
13:00 +24°C° 0 mm 6 mps 755 mmHg 65%
14:00 +24°C° 0 mm 6 mps 754 mmHg 65%
15:00 +24°C° 0.1 mm 6 mps 754 mmHg 68%
16:00 +24°C° 0.1 mm 6 mps 754 mmHg 71%
17:00 +23°C° 0.1 mm 6 mps 754 mmHg 75%
18:00 +21°C° 0.1 mm 6 mps 755 mmHg 74%
19:00 +20°C° 0.1 mm 6 mps 756 mmHg 73%
20:00 +17°C° 0.1 mm 5 mps 756 mmHg 72%
21:00 +17°C° 0 mm 5 mps 756 mmHg 72%
22:00 +17°C° 0 mm 5 mps 757 mmHg 71%
23:00 +16°C° 0 mm 5 mps 757 mmHg 70%
Show more